UAL2283 KBOS-KMIA

Flight info

Callsign UAL2283
Flight time N/A
Altitude 38000
Route SSOXS7 SSOXS Q167 RIFLE HEADI Q97 KALDA Q101 SKARP Y313 HOAGG BNFSH2
Aircraft B77W/H-SDE1E2E3FGHIJ2J3J4J5M1RWXY/LB1D1

Departure

Time 2026-05-06 23:06
Airport Boston Logan International Airport (KBOS)

Arrival

Time N/A
Airport Miami International Airport (KMIA)
Time Latitude Longitude Altitude Speed Heading
2026-05-06 22:44 42.36125 -71.02025 34 ft 0 kts 24°
2026-05-06 22:56 42.36083 -71.02060 31 ft 5 kts 35°
2026-05-06 22:57 42.36052 -71.02104 32 ft 9 kts 90°
2026-05-06 22:57 42.36054 -71.02123 31 ft 0 kts 121°
2026-05-06 22:58 42.36045 -71.02104 32 ft 0 kts 120°
2026-05-06 22:58 42.36042 -71.02096 32 ft 8 kts 119°
2026-05-06 22:58 42.35984 -71.01966 35 ft 30 kts 121°
2026-05-06 22:58 42.35913 -71.01778 39 ft 15 kts 107°
2026-05-06 22:59 42.35899 -71.01692 40 ft 2 kts 99°
2026-05-06 22:59 42.35891 -71.01608 40 ft 10 kts 90°
2026-05-06 22:59 42.35978 -71.01506 38 ft 20 kts 21°
2026-05-06 22:59 42.36080 -71.01455 38 ft 17 kts 20°
2026-05-06 23:00 42.36199 -71.01396 36 ft 21 kts 20°
2026-05-06 23:00 42.36340 -71.01331 34 ft 21 kts 18°
2026-05-06 23:00 42.36487 -71.01259 34 ft 23 kts 21°
2026-05-06 23:00 42.36588 -71.01211 36 ft 17 kts 19°
2026-05-06 23:01 42.36721 -71.01148 37 ft 22 kts 15°
2026-05-06 23:01 42.36806 -71.01174 35 ft 9 kts 322°
2026-05-06 23:01 42.36867 -71.01225 33 ft 12 kts 353°
2026-05-06 23:01 42.36950 -71.01153 34 ft 18 kts 41°
2026-05-06 23:02 42.37116 -71.01023 31 ft 21 kts 25°
2026-05-06 23:02 42.37177 -71.00985 32 ft 0 kts 25°
2026-05-06 23:02 42.37198 -71.00971 32 ft 15 kts 27°
2026-05-06 23:02 42.37370 -71.00867 31 ft 34 kts 22°
2026-05-06 23:03 42.37628 -71.00739 35 ft 45 kts 18°
2026-05-06 23:03 42.37713 -71.00702 38 ft 3 kts 18°
2026-05-06 23:03 42.37752 -71.00686 39 ft 0 kts 17°
2026-05-06 23:03 42.37768 -71.00679 39 ft 17 kts 17°
2026-05-06 23:04 42.37832 -71.00592 38 ft 9 kts 83°
2026-05-06 23:04 42.37832 -71.00579 37 ft 0 kts 88°
2026-05-06 23:04 42.37830 -71.00544 37 ft 11 kts 100°
2026-05-06 23:04 42.37765 -71.00492 35 ft 17 kts 190°
2026-05-06 23:05 42.37756 -71.00495 35 ft 0 kts 194°
2026-05-06 23:05 42.37636 -71.00548 37 ft 62 kts 200°
2026-05-06 23:06 42.36893 -71.00906 38 ft 164 kts 201°
2026-05-06 23:06 42.35612 -71.01525 818 ft 218 kts 199°
2026-05-06 23:06 42.34021 -71.01949 2132 ft 261 kts 162°
2026-05-06 23:06 42.32567 -70.99878 2653 ft 369 kts 112°
2026-05-06 23:07 42.32047 -70.96509 3456 ft 355 kts 91°
2026-05-06 23:07 42.32290 -70.93197 2925 ft 357 kts 81°
2026-05-06 23:07 42.32755 -70.89840 2159 ft 370 kts 78°
2026-05-06 23:07 42.33383 -70.86318 2882 ft 389 kts 80°
2026-05-06 23:08 42.33877 -70.82935 3626 ft 344 kts 84°
2026-05-06 23:08 42.33775 -70.80075 4079 ft 280 kts 119°
2026-05-06 23:08 42.33016 -70.77778 4135 ft 268 kts 123°
2026-05-06 23:08 42.32148 -70.75486 4225 ft 279 kts 124°
2026-05-06 23:09 42.31226 -70.73129 4291 ft 287 kts 124°
2026-05-06 23:09 42.30288 -70.70740 4258 ft 283 kts 124°
2026-05-06 23:09 42.29363 -70.68377 4382 ft 286 kts 124°
2026-05-06 23:09 42.28197 -70.66287 4512 ft 271 kts 149°
2026-05-06 23:10 42.26614 -70.65007 4703 ft 264 kts 161°
2026-05-06 23:10 42.24960 -70.63942 4876 ft 265 kts 163°
2026-05-06 23:10 42.23262 -70.62975 5029 ft 263 kts 166°
2026-05-06 23:10 42.21570 -70.62103 5192 ft 264 kts 167°
2026-05-06 23:11 42.19844 -70.61252 5338 ft 264 kts 168°
2026-05-06 23:11 42.18108 -70.60413 5455 ft 265 kts 168°
2026-05-06 23:11 42.16337 -70.59566 5657 ft 291 kts 168°
2026-05-06 23:11 42.14230 -70.58636 5912 ft 330 kts 171°
2026-05-06 23:12 42.11942 -70.58418 6131 ft 348 kts 192°
2026-05-06 23:12 42.09558 -70.59046 6506 ft 345 kts 199°
2026-05-06 23:12 42.07286 -70.60037 6827 ft 344 kts 203°
2026-05-06 23:12 42.05027 -70.61127 7125 ft 345 kts 204°
2026-05-06 23:13 42.02773 -70.62255 7502 ft 343 kts 205°
2026-05-06 23:13 42.00525 -70.63396 7960 ft 346 kts 205°
2026-05-06 23:13 41.98272 -70.64539 8422 ft 349 kts 205°
2026-05-06 23:13 41.95992 -70.65695 8851 ft 348 kts 205°
2026-05-06 23:14 41.93698 -70.66897 9338 ft 368 kts 207°
2026-05-06 23:14 41.91333 -70.68236 9803 ft 368 kts 207°
2026-05-06 23:14 41.89026 -70.69635 10201 ft 367 kts 213°
2026-05-06 23:14 41.87000 -70.71691 10621 ft 365 kts 224°
2026-05-06 23:15 41.85130 -70.74015 11159 ft 364 kts 226°
2026-05-06 23:15 41.83309 -70.76370 11774 ft 369 kts 226°
2026-05-06 23:15 41.81463 -70.78813 12410 ft 373 kts 227°
2026-05-06 23:15 41.79617 -70.81288 13023 ft 376 kts 227°
2026-05-06 23:16 41.77770 -70.83778 13693 ft 380 kts 228°
2026-05-06 23:16 41.75994 -70.86426 14276 ft 384 kts 231°
2026-05-06 23:16 41.74259 -70.89172 14904 ft 387 kts 231°
2026-05-06 23:16 41.72654 -70.91769 15470 ft 388 kts 232°
2026-05-06 23:17 41.70951 -70.94552 16080 ft 392 kts 232°
2026-05-06 23:17 41.69198 -70.97433 16714 ft 396 kts 232°
2026-05-06 23:17 41.67484 -71.00258 17345 ft 399 kts 232°
2026-05-06 23:17 41.65726 -71.03159 18001 ft 402 kts 232°
2026-05-06 23:18 41.63956 -71.06077 18566 ft 407 kts 232°
2026-05-06 23:18 41.62154 -71.09026 19145 ft 412 kts 232°
2026-05-06 23:18 41.60318 -71.11995 19752 ft 416 kts 232°
2026-05-06 23:18 41.58449 -71.14974 20371 ft 418 kts 232°
2026-05-06 23:19 41.56561 -71.17951 20985 ft 422 kts 232°
2026-05-06 23:19 41.54637 -71.20944 21612 ft 427 kts 232°
2026-05-06 23:19 41.52678 -71.23953 22264 ft 431 kts 232°
2026-05-06 23:19 41.50686 -71.26977 22930 ft 436 kts 232°
2026-05-06 23:20 41.48655 -71.30023 23590 ft 440 kts 232°
2026-05-06 23:20 41.46599 -71.33071 24114 ft 441 kts 233°
2026-05-06 23:20 41.44566 -71.36062 24726 ft 438 kts 233°
2026-05-06 23:20 41.42527 -71.39155 25472 ft 440 kts 234°
2026-05-06 23:21 41.40539 -71.42212 26216 ft 444 kts 234°
2026-05-06 23:21 41.38472 -71.45320 26980 ft 452 kts 231°
2026-05-06 23:21 41.36231 -71.48265 27769 ft 453 kts 233°
2026-05-06 23:21 41.34155 -71.51466 28597 ft 455 kts 235°
2026-05-06 23:22 41.32141 -71.54730 29441 ft 456 kts 236°
2026-05-06 23:22 41.30165 -71.57980 30268 ft 449 kts 236°
2026-05-06 23:22 41.28158 -71.61157 31005 ft 447 kts 234°
2026-05-06 23:22 41.26130 -71.64196 31755 ft 446 kts 234°
2026-05-06 23:23 41.24040 -71.67244 32516 ft 444 kts 234°
2026-05-06 23:23 41.21946 -71.70238 33338 ft 442 kts 234°
2026-05-06 23:23 41.19845 -71.73198 34127 ft 440 kts 233°
2026-05-06 23:23 41.17741 -71.76124 34890 ft 437 kts 233°
2026-05-06 23:24 41.15633 -71.79016 35704 ft 435 kts 233°